Pluma, South Dakota
Current Conditions -  °F | °C
As of 1:35 AM on Friday 31 Oct 2014 (Local Time) from KSPF Reporting Station
Moderate Fog Moderate Fog  
Wind Chill: 28°   Ceiling: 200
Heat Index: 28°   Visibility: 0.5mi
Dew Point: 27°   Wind: 0mph
Humidity: 93%   Direction: NA
Pressure: 30.39"   Gusts: NA
Location:  44.2665°N, 103.672°W
Report Text: KSPF 310735Z AUTO 00000KT 1/2SM FZFG OVC002 M02/M03 A3039 RMK AO2
Loading
Personal Weather Stations






























Interactive Weather Map
Tropical Storm Tracking
New forecast layout! Learn more

10-Day Weather Forecast

Advertisements
Track Severe Weather on mobile